Weather History for Pineville, WV

Change the Weather History Date:

Tuesday, May 21, 2013

  Actual Average (KBKW) Record (KBKW)
Temperature  
Mean Temperature 74 °F 61 °F  
Max Temperature 86 °F 71 °F 90 °F (1941)
Min Temperature 61 °F 51 °F 29 °F (1907)
Degree Days  
Heating Degree Days 0 5  
Month to date heating degree days 150  
Since 1 July heating degree days 5259  
Cooling Degree Days 8 1  
Month to date cooling degree days 15  
Year to date cooling degree days 25  
Growing Degree Days 24 (Base 50)    
Moisture  
Dew Point 66 °F    
Average Humidity 87    
Maximum Humidity 100    
Minimum Humidity 52    
Precipitation  
Precipitation 0.00 in 0.15 in 1.23 in (1901)
Month to date precipitation 3.11  
Year to date precipitation 15.61  
Snow  
Snow 0.00 in - - ()
Month to date snowfall  
Since 1 September snowfall  
Snow Depth -    
Sea Level Pressure  
Sea Level Pressure 30.08 in    
Wind  
Wind Speed - (North)    
Max Wind Speed -    
Max Gust Speed -    
Visibility 6 miles    
Events Fog , Rain    
T = Trace of Precipitation, MM = Missing Value Source: NWS Daily Summary

Daily Weather History Graph

Daily Weather History Graph

Search for Another Location

Airport:

Trip Planner

Search our weather history database for the weather conditions in past years. The results will help you decide how hot, cold, wet, or windy it might be!

Date:

Astronomy

May. 21, 2013 Rise Set
Actual Time 6:12 AM EDT 8:34 PM EDT
Civil Twilight 5:42 AM EDT 9:03 PM EDT
Nautical Twilight 5:05 AM EDT 9:40 PM EDT
Astronomical Twilight 4:25 AM EDT 10:21 PM EDT
Moon 4:50 PM EDT (5/21) 3:34 AM EDT (5/21)
Length of Visible Light 15h 21m
Length of Day
14h 21m
Waxing Gibbous, 84% of the Moon is Illuminated
May 21
Waxing Gibbous
May 25
Full
May 31
Last Quarter
Jun 8
New
Jun 16
First Quarter

Hourly Weather History & Observations

Time (EDT) Temp. Heat Index Dew Point Humidity Pressure Visibility Wind Dir Wind Speed Gust Speed Precip Events Conditions
12:15 AM 65.3 °F - 65.3 °F 100% 30.09 in 0.5 mi North - - N/A Fog Fog
12:35 AM 64.9 °F - 64.9 °F 100% 30.09 in 0.8 mi North - - N/A   Overcast
12:55 AM 65.1 °F - 65.1 °F 100% 30.09 in 0.5 mi North - - N/A Fog Fog
1:15 AM 64.2 °F - 64.2 °F 100% 30.08 in 0.5 mi North - - N/A Fog Fog
1:35 AM 63.7 °F - 63.7 °F 100% 30.08 in 0.5 mi North - - N/A Fog Fog
1:55 AM 63.9 °F - 63.9 °F 100% 30.08 in 0.5 mi North - - N/A Fog Fog
2:15 AM 63.9 °F - 63.9 °F 100% 30.08 in 0.2 mi North - - N/A Fog Fog
2:35 AM 63.7 °F - 63.7 °F 100% 30.08 in 0.2 mi North - - N/A Fog Fog
2:55 AM 63.7 °F - 63.7 °F 100% 30.09 in 0.2 mi North - - N/A Fog Fog
3:15 AM 63.5 °F - 63.5 °F 100% 30.09 in 0.2 mi North - - N/A Fog Fog
3:35 AM 63.5 °F - 63.5 °F 100% 30.09 in 0.2 mi North - - N/A Fog Fog
3:55 AM 62.6 °F - 62.6 °F 100% 30.09 in 0.2 mi North - - N/A Fog Fog
4:15 AM 62.2 °F - 62.2 °F 100% 30.09 in 0.2 mi North - - N/A Fog Fog
4:35 AM 62.1 °F - 62.1 °F 100% 30.09 in 0.2 mi North - - N/A Fog Fog
4:55 AM 61.9 °F - 61.9 °F 100% 30.10 in 0.2 mi North - - N/A Fog Fog
5:15 AM 62.2 °F - 62.2 °F 100% 30.10 in 0.2 mi North - - N/A Fog Fog
5:35 AM 62.2 °F - 62.2 °F 100% 30.10 in 0.2 mi North - - N/A Fog Fog
5:55 AM 61.9 °F - 61.9 °F 100% 30.11 in 0.5 mi North - - N/A Fog Fog
6:15 AM 61.7 °F - 61.7 °F 100% 30.11 in 0.5 mi North - - N/A Fog Fog
6:35 AM 61.3 °F - 61.3 °F 100% 30.11 in 0.2 mi North - - N/A Fog Fog
6:55 AM 61.7 °F - 61.7 °F 100% 30.11 in 0.2 mi North - - N/A Fog Fog
7:15 AM 61.3 °F - 61.3 °F 100% 30.11 in 0.5 mi North - - N/A Fog Fog
7:35 AM 61.7 °F - 61.7 °F 100% 30.12 in 0.8 mi North - - N/A   Overcast
7:55 AM 62.2 °F - 62.2 °F 100% 30.12 in 0.8 mi North - - N/A   Overcast
8:15 AM 62.6 °F - 62.6 °F 100% 30.13 in 1.2 mi North - - N/A   Overcast
8:35 AM 63.7 °F - 63.7 °F 100% 30.13 in 5.0 mi North - - N/A   Overcast
8:55 AM 64.4 °F - 64.4 °F 100% 30.13 in 10.0 mi North - - N/A   Mostly Cloudy
9:15 AM 66.4 °F - 66.4 °F 100% 30.14 in 10.0 mi North - - N/A   Scattered Clouds
9:55 AM 71.1 °F - 69.3 °F 94% 30.15 in 10.0 mi North - - N/A   Mostly Cloudy
10:15 AM 72.0 °F - 69.4 °F 92% 30.14 in 10.0 mi North - - N/A   Mostly Cloudy
10:55 AM 75.6 °F - 70.5 °F 84% 30.13 in 10.0 mi North - - N/A   Mostly Cloudy
11:15 AM 76.1 °F - 69.4 °F 80% 30.13 in 10.0 mi North - - N/A   Overcast
11:35 AM 77.5 °F - 69.6 °F 76% 30.13 in 10.0 mi North - - N/A   Overcast
12:15 PM 80.2 °F 83.5 °F 70.2 °F 71% 30.12 in 10.0 mi North - - N/A   Scattered Clouds
12:35 PM 80.4 °F 83.5 °F 69.6 °F 69% 30.12 in 10.0 mi North - - N/A   Scattered Clouds
12:55 PM 80.6 °F 83.9 °F 70.2 °F 70% 30.11 in 10.0 mi North - - N/A   Mostly Cloudy
1:15 PM 81.5 °F 84.9 °F 69.6 °F 67% 30.11 in 10.0 mi North - - N/A   Mostly Cloudy
1:35 PM 83.3 °F 87.1 °F 69.6 °F 63% 30.09 in 10.0 mi North - - N/A   Mostly Cloudy
1:55 PM 82.2 °F 85.1 °F 68.0 °F 62% 30.08 in 10.0 mi North - - N/A   Scattered Clouds
2:15 PM 83.8 °F 86.7 °F 67.5 °F 58% 30.08 in 10.0 mi North - - N/A   Scattered Clouds
2:35 PM 84.2 °F 87.1 °F 67.6 °F 57% 30.06 in 10.0 mi North - - N/A   Mostly Cloudy
3:15 PM 86.2 °F 89.4 °F 67.6 °F 54% 30.05 in 10.0 mi North - - N/A   Scattered Clouds
3:35 PM 85.1 °F 88.2 °F 67.6 °F 56% 30.04 in 10.0 mi North - - N/A   Mostly Cloudy
3:55 PM 85.6 °F 88.5 °F 67.5 °F 54% 30.04 in 10.0 mi North - - N/A   Mostly Cloudy
4:15 PM 86.4 °F 89.0 °F 67.1 °F 52% 30.03 in 10.0 mi North - - N/A   Scattered Clouds
4:35 PM 85.3 °F 87.9 °F 67.1 °F 54% 30.02 in 10.0 mi North - - N/A   Scattered Clouds
4:55 PM 85.3 °F 87.9 °F 67.1 °F 54% 29.99 in 10.0 mi North - - N/A   Scattered Clouds
5:15 PM 85.6 °F 90.1 °F 69.8 °F 59% 30.00 in 10.0 mi North - - N/A   Clear
5:35 PM 83.3 °F 89.3 °F 73.0 °F 71% 30.00 in 10.0 mi North - - N/A   Clear
5:55 PM 81.7 °F 86.5 °F 72.3 °F 73% 29.99 in 10.0 mi North - - N/A   Clear
6:15 PM 80.1 °F 84.2 °F 73.0 °F 79% 29.99 in 10.0 mi North - - N/A   Clear
6:35 PM 79.3 °F - 72.7 °F 80% 29.99 in 10.0 mi North - - N/A   Clear
6:55 PM 78.1 °F - 72.5 °F 83% 30.00 in 10.0 mi North - - N/A   Clear
7:15 PM 77.4 °F - 71.8 °F 83% 29.99 in 10.0 mi North - - N/A   Clear
7:35 PM 75.9 °F - 71.6 °F 86% 29.99 in 10.0 mi North - - N/A   Clear
7:55 PM 74.3 °F - 71.2 °F 90% 30.00 in 10.0 mi North - - N/A   Scattered Clouds
8:15 PM 73.6 °F - 70.7 °F 91% 30.01 in 10.0 mi North - - N/A   Mostly Cloudy
8:55 PM 65.8 °F - 64.4 °F 95% 30.11 in 1.5 mi North - - N/A Rain Heavy Rain
9:15 PM 65.3 °F - 64.8 °F 98% 30.09 in 5.0 mi North - - N/A Rain Light Rain
9:35 PM 64.8 °F - 64.8 °F 100% 30.06 in 7.0 mi North - - N/A Rain Light Rain
9:55 PM 64.6 °F - 64.6 °F 100% 30.04 in 10.0 mi North - - N/A   Scattered Clouds
10:15 PM 64.4 °F - 64.4 °F 100% 30.06 in 7.0 mi North - - N/A   Clear
10:35 PM 64.4 °F - 64.4 °F 100% 30.08 in 10.0 mi North - - N/A   Clear
10:55 PM 64.4 °F - 64.4 °F 100% 30.08 in 10.0 mi North - - N/A   Clear
11:15 PM 64.2 °F - 64.2 °F 100% 30.09 in 10.0 mi North - - N/A   Scattered Clouds
11:35 PM 63.5 °F - 63.5 °F 100% 30.09 in 5.0 mi North - - N/A   Scattered Clouds
11:55 PM 63.5 °F - 63.5 °F 100% 30.07 in 7.0 mi North - - N/A   Scattered Clouds